Dewpoint
53 51 51 51 53 52 53 53 53 53 53 53 53 52 52 52 51 46 44 46 47 52 52 44 36 36 33 36 45 45 38 35 35 34 34 35 33 35 40 38 50 53 54 55 55
52 51 51 51 52 53 54 53 53 53 54 53 53 52 52 52 47 41 45 48 49 52 40 41 35 35 39 37 38 42 38 37 36 34 35 36 36 35 36 36 48 52 53 55 59
51 50 51 51 51 51 52 53 53 53 53 53 52 51 52 51 40 40 47 47 48 46 41 42 37 36 38 37 36 40 38 39 39 38 39 38 36 36 33 35 46 50 51 56 58
50 50 51 51 51 51 51 51 52 53 53 52 51 51 53 45 23 39 47 48 47 43 39 39 38 35 32 33 34 33 35 35 39 39 40 38 41 38 36 36 43 52 51 54 56
50 50 51 51 50 51 51 51 51 51 52 51 51 51 46 34 33 38 50 47 43 41 39 37 36 37 32 31 32 33 33 32 33 36 35 43 42 41 41 40 43 53 52 52 56
50 50 51 51 50 51 52 51 51 52 51 51 50 50 38 29 37 42 42 42 42 41 38 38 36 37 36 30 31 32 31 26 28 27 34 40 41 40 40 40 39 50 53 53 53
51 50 51 51 50 51 51 51 51 51 50 50 51 47 37 36 40 42 42 41 42 40 38 39 39 37 37 31 34 30 24 25 20 26 33 38 37 38 40 40 39 39 40 48 54
51 51 50 51 51 51 52 52 51 50 50 50 51 44 34 41 42 41 41 41 43 42 40 40 39 38 36 34 29 23 22 19 19 19 19 35 31 33 34 33 35 37 38 38 43
51 51 50 51 51 51 52 53 51 50 51 51 44 39 33 46 39 41 41 40 42 41 42 40 38 35 34 31 26 27 18 20 20 26 26 26 27 29 23 26 28 29 31 33 38
51 51 50 50 51 52 53 51 49 48 46 46 41 32 37 35 40 40 41 41 40 40 39 36 35 31 30 29 23 26 25 26 24 24 28 25 22 22 23 20 19 19 20 22 31
50 51 50 50 50 51 46 37 30 23 38 35 35 35 36 39 42 39 42 42 39 37 31 34 29 28 29 29 29 27 26 26 26 27 27 25 26 26 26 25 24 23 21 20 23
49 50 49 49 49 49 43 39 37 33 33 37 37 38 38 42 38 38 42 37 36 33 34 29 28 31 32 29 28 28 26 25 27 29 27 25 24 25 25 26 25 24 22 21 20
49 50 49 49 48 45 43 43 46 42 33 32 37 39 38 41 35 36 40 38 35 33 33 28 30 32 30 28 27 26 26 26 26 28 27 24 20 23 23 22 24 25 25 23 20
49 50 49 49 39 40 41 44 45 43 18 19 30 38 37 40 32 41 42 38 33 33 33 30 34 31 30 27 30 26 30 29 28 26 22 25 18 22 23 24 30 31 32 32 33
49 49 48 46 38 40 43 44 44 36 -1 15 26 36 35 33 33 35 42 37 33 33 30 28 31 30 29 31 32 29 32 30 29 29 24 22 19 20 21 22 29 30 31 33 35
49 48 47 41 42 42 44 44 38 19 -9 16 28 28 29 32 33 38 39 39 39 33 31 31 35 33 32 33 33 33 31 27 28 27 10 21 20 18 27 29 30 31 32 33 35
49 46 44 44 39 44 44 36 19 8 13 6 21 27 28 27 28 31 34 33 29 15 20 24 28 34 33 29 32 31 22 7 8 8 9 22 20 22 30 31 32 32 32 33 34
49 45 46 45 45 43 35 21 -0 -0 7 23 27 28 25 27 26 27 30 29 33 25 20 22 14 30 33 32 31 31 30 18 6 12 15 21 17 26 31 32 32 31 31 31 32
47 41 42 42 44 41 25 11 8 10 22 26 24 18 20 26 26 25 29 30 31 28 14 16 15 27 34 34 34 30 25 33 25 16 16 19 20 29 29 29 30 30 31 32 31
40 39 40 42 42 31 22 13 14 27 29 28 8 20 15 23 22 24 24 32 31 35 30 23 15 23 31 32 33 33 34 26 23 7 6 14 17 22 27 28 31 28 31 32 33
38 33 39 41 38 26 15 10 23 27 31 24 15 22 25 23 23 23 25 31 29 31 33 31 22 17 25 25 28 32 29 28 29 25 14 12 15 31 28 30 31 31 31 31 32
36 25 38 38 23 24 13 22 27 27 31 31 27 26 26 26 24 24 25 27 25 25 29 32 28 20 15 28 32 33 29 29 24 21 23 20 20 33 33 34 34 32 33 34 35
31 33 39 35 17 12 22 26 26 28 29 30 29 29 28 26 17 25 26 26 26 29 29 29 26 14 12 23 24 26 29 29 30 28 21 21 17 33 33 32 33 33 33 34 34
35 27 34 35 30 22 19 23 24 29 30 30 27 30 29 24 26 23 26 27 28 33 35 32 27 15 15 18 29 25 24 29 29 16 20 22 20 28 29 30 32 32 33 33 33
35 30 31 28 29 28 23 23 24 24 29 30 28 27 26 20 18 20 25 25 29 33 30 29 17 19 22 25 27 28 27 30 26 25 19 19 21 29 30 31 32 32 32 30 31
33 32 33 28 29 27 26 22 23 24 28 27 25 26 27 24 21 16 24 25 23 26 23 27 18 20 17 28 28 26 27 31 23 27 27 27 23 32 33 33 31 29 31 30 30
37 33 33 31 29 27 26 23 23 26 27 27 28 26 26 27 27 26 27 27 25 24 23 23 20 12 9 18 25 17 23 25 24 30 28 23 23 33 32 33 29 28 30 30 30
Lifted_Index
14 14 14 14 13 13 12 13 13 13 13 13 12 12 12 12 13 14 14 13 12 12 12 11 10 9 9 7 4 3 3 3 3 3 3 3 3 3 2 1 0 -1 -1 -1 -0
14 14 14 14 13 13 13 13 13 13 13 12 12 12 12 12 13 14 14 13 12 12 12 11 10 9 8 7 5 3 3 3 3 3 3 3 3 3 2 2 1 -0 -1 -1 -0
14 14 14 14 14 13 13 13 13 13 13 12 12 12 12 12 12 13 13 13 12 13 12 11 10 9 8 7 6 4 3 3 3 3 3 3 3 3 3 2 1 -0 -1 -1 -1
14 14 14 14 14 14 14 14 13 13 13 12 12 12 12 12 12 13 13 13 13 13 12 11 10 9 8 7 6 5 4 3 3 3 3 3 2 3 3 3 1 -0 -1 -1 -1
14 14 14 14 14 14 14 14 14 13 13 12 12 12 12 12 12 13 13 13 13 13 12 11 10 8 8 7 7 6 5 4 3 3 3 2 2 2 2 3 2 -0 -1 -1 -1
14 14 14 14 14 14 14 14 13 13 13 12 12 12 12 12 12 13 13 12 12 12 11 11 9 8 8 8 7 7 6 5 4 4 3 3 2 2 2 3 2 1 -0 -1 -1
14 14 14 14 14 14 13 13 13 13 13 12 12 12 12 12 12 13 13 12 11 10 10 10 9 8 8 8 8 8 7 6 6 5 5 4 3 3 3 3 3 3 2 1 0
13 14 14 14 14 13 13 13 13 13 13 12 12 12 12 12 12 12 12 11 10 9 8 9 8 7 7 7 7 7 6 6 6 7 6 5 5 4 4 4 4 4 4 3 3
13 13 14 14 13 13 13 13 13 13 12 12 12 12 12 12 12 12 12 11 9 8 7 8 7 7 6 6 6 6 5 5 6 7 7 7 6 6 5 5 5 5 5 4 4
13 13 14 14 13 13 13 13 13 13 12 12 12 12 12 12 12 12 11 10 8 7 7 7 7 6 6 5 5 5 5 5 5 6 7 7 6 6 6 5 5 5 4 4 4
13 13 14 14 14 14 14 14 14 13 12 12 12 12 12 12 12 12 11 10 8 7 6 6 6 6 5 5 5 5 5 5 5 6 6 6 6 6 6 6 5 4 3 3 4
14 13 14 14 14 14 15 15 14 13 12 12 12 12 12 12 12 11 10 9 7 7 6 6 6 6 5 5 5 5 5 5 5 6 6 6 6 6 6 6 5 4 4 3 4
14 14 14 14 14 15 15 15 14 12 10 10 11 12 12 12 12 11 10 8 7 7 6 6 6 6 5 5 4 4 4 4 5 5 5 5 5 5 6 6 6 5 5 5 5
14 14 14 14 15 15 15 15 14 11 8 8 11 12 12 12 11 11 9 8 7 7 6 6 6 5 5 4 4 4 4 4 4 4 4 4 4 4 6 6 6 6 6 6 6
14 14 14 15 15 15 15 15 13 9 6 7 10 11 12 11 11 11 9 8 7 7 6 6 5 5 4 4 4 4 4 4 3 3 3 3 3 4 6 6 6 7 7 7 7
14 14 15 15 15 15 15 14 11 7 5 6 9 10 11 11 11 10 10 8 7 6 6 6 5 4 4 4 4 4 4 3 3 2 2 3 4 5 6 7 7 7 7 7 7
14 14 15 15 15 15 14 11 8 5 6 7 8 9 9 10 10 10 10 8 7 6 6 5 5 4 4 4 4 4 4 2 1 1 2 3 4 5 6 7 7 7 7 8 8
14 14 15 15 15 14 12 9 6 5 7 7 8 8 8 9 10 10 9 8 7 6 6 5 4 4 5 4 4 4 3 2 1 1 2 3 4 5 6 6 7 7 7 7 7
14 14 14 15 15 13 10 7 6 7 8 8 7 7 7 8 9 9 9 8 8 7 6 5 4 5 5 5 4 4 4 3 2 2 2 2 3 4 5 6 6 7 7 7 7
14 13 14 14 14 12 8 6 7 9 9 8 6 6 6 7 7 8 8 9 9 8 7 6 5 5 5 5 5 4 4 4 3 2 1 2 3 4 5 5 6 7 7 7 8
12 11 12 14 12 9 7 6 8 10 10 9 7 7 7 7 7 7 8 9 10 9 8 7 5 4 4 5 5 4 4 4 3 3 2 2 3 5 6 6 6 7 8 8 9
8 8 11 12 9 7 6 7 9 10 10 9 8 8 8 8 7 7 8 10 11 10 8 7 5 4 4 4 5 5 5 5 4 3 3 3 4 6 7 7 8 8 9 10 11
5 6 10 10 7 5 5 7 8 9 10 9 9 9 9 9 8 8 9 11 11 10 8 7 6 4 3 4 4 4 5 5 5 4 4 3 4 6 7 8 9 9 10 11 11
4 5 7 7 6 5 5 6 7 8 9 9 9 9 9 8 8 9 10 11 11 10 9 8 6 4 3 3 3 3 4 5 5 4 4 3 4 6 7 8 9 10 10 11 11
4 3 4 4 4 4 5 5 6 8 9 9 9 9 8 8 8 9 10 11 11 10 10 8 6 5 3 2 3 3 4 4 4 4 4 4 5 6 7 8 9 10 11 11 11
4 4 3 3 3 4 4 5 6 7 9 9 8 8 8 8 9 9 11 11 11 10 9 8 6 5 3 2 2 3 3 4 4 4 4 4 5 7 8 8 9 10 11 11 11
5 5 4 3 3 3 3 4 6 8 9 9 9 9 9 9 10 11 11 12 11 10 9 8 6 5 3 2 2 2 3 3 4 4 4 4 5 7 8 9 10 11 11 11 11